This is the latest recevied weather packets stored in our database for station/object KC3ELT-10. If no packets are shown the sender has not sent any weather packets the latest 1 day(s).
| Time | Temp. | Humidity | Pressure | Rain* | Wind** | Luminosity | Snow |
|---|---|---|---|---|---|---|---|
| 1778081579 | 14.44° C | 88% | 1002.9 hPa | 0 mm | 1.79 m/s, 209° | - | - |
| 1778081279 | 14.44° C | 88% | 1003 hPa | 0 mm | 1.34 m/s, 158° | - | - |
| 1778080979 | 14.44° C | 87% | 1003 hPa | 0 mm | 1.34 m/s, 166° | - | - |
| 1778080379 | 14.44° C | 87% | 1002.6 hPa | 0 mm | 3.13 m/s, 193° | - | - |
| 1778079779 | 15° C | 87% | 1002.6 hPa | 0 mm | 1.34 m/s, 184° | - | - |
| 1778079479 | 15° C | 86% | 1002.6 hPa | 0 mm | 1.34 m/s, 166° | - | - |
| 1778079179 | 15° C | 86% | 1002.6 hPa | 0 mm | 0.89 m/s, 181° | - | - |
| 1778078879 | 15° C | 85% | 1002.6 hPa | 0 mm | 1.34 m/s, 203° | - | - |
| 1778078579 | 15° C | 85% | 1002.9 hPa | 0 mm | 1.34 m/s, 143° | - | - |
| 1778078279 | 15° C | 84% | 1002.9 hPa | 0 mm | 1.34 m/s, 342° | - | - |
| 1778077979 | 15.56° C | 83% | 1002.9 hPa | 0 mm | 1.34 m/s, 128° | - | - |
| 1778077679 | 15.56° C | 83% | 1002.9 hPa | 0 mm | 0.45 m/s, 170° | - | - |
| 1778077379 | 15.56° C | 82% | 1002.9 hPa | 0 mm | 2.24 m/s, 199° | - | - |
| 1778077079 | 16.11° C | 81% | 1002.9 hPa | 0 mm | 1.79 m/s, 223° | - | - |
| 1778076779 | 16.11° C | 80% | 1002.5 hPa | 0 mm | 1.79 m/s, 194° | - | - |
| 1778076479 | 16.11° C | 80% | 1002.5 hPa | 0 mm | 0 m/s | - | - |
| 1778076179 | 16.11° C | 80% | 1002.5 hPa | 0 mm | 0.89 m/s, 187° | - | - |
| 1778075879 | 16.11° C | 80% | 1002.6 hPa | 0 mm | 4.02 m/s, 200° | - | - |
| 1778075579 | 16.11° C | 81% | 1002.6 hPa | 0 mm | 1.34 m/s, 275° | - | - |
| 1778075279 | 16.11° C | 80% | 1002.6 hPa | 0 mm | 0.89 m/s, 238° | - | - |
| 1778074979 | 16.11° C | 80% | 1002.8 hPa | 0 mm | 1.34 m/s, 193° | - | - |
| 1778074679 | 16.11° C | 79% | 1002.8 hPa | 0 mm | 1.34 m/s, 129° | - | - |
| 1778074379 | 16.11° C | 79% | 1002.8 hPa | 0 mm | 1.34 m/s, 172° | - | - |
| 1778074079 | 16.11° C | 79% | 1002.9 hPa | 0 mm | 1.34 m/s, 154° | - | - |
| 1778073479 | 16.11° C | 79% | 1002.9 hPa | 0 mm | 1.79 m/s, 214° | - | - |
* Rain latest hour (hover to see other rain measurements)
** Current wind speed in m/s (hover to see current wind gust speed)